[[{"header":{"parameterUnit":"m.s-1","parameterCategory":1,"la1":30.2991,"la2":30.254,"lo1":-89.0895,"lo2":-89.0444,"dy":0.0017,"dx":0.0017,"nx":28,"ny":28,"refTime":"2023-07-24T21:00:00:Z","depth":0,"parameterNumber":2,"parameterNumberName":"U-component_of_WINDS"},"data":[0,0,0,0,0,0,0,0,0,0,0,0,0,0,0,0,0,0,0,0,0,0,0,0,0,0,0,0,0,0,0,0,0,0,0,0,0,0,0,0,0,0,0,0,0,0,0,0,0,0,0,0,0,0,0,0,0,0,-1.7638,-1.7637,0,-1.7534,-1.7533,-1.7532,-1.7425,-1.7423,-1.7422,-1.7421,-1.7314,-1.7312,-1.7311,0,0,0,0,0,0,0,0,0,0,0,0,0,-1.7743,-1.7741,-1.7638,-1.7637,-1.7636,-1.7535,-1.7533,-1.7532,-1.7425,-1.7423,-1.7422,-1.742,-1.7314,-1.7313,-1.7311,0,0,0,0,0,0,0,0,0,0,0,0,0,-1.7674,-1.7741,-1.7638,-1.757,-1.7563,-1.7535,-1.7533,-1.7531,-1.7426,-1.7423,-1.7421,-1.7419,-1.7315,-1.7313,-1.7311,-1.7341,0,0,-1.7304,-1.7303,0,0,0,0,0,0,0,0,-1.7678,-1.767,-1.7582,-1.7575,-1.7567,-1.749,-1.7531,-1.7468,-1.7426,-1.7478,-1.7421,-1.7418,-1.7374,-1.7367,-1.7352,-1.7336,-1.7332,-1.7304,-1.7302,-1.7301,-1.7301,0,0,0,0,0,0,0,-1.7683,-1.7674,-1.7597,-1.758,-1.7571,-1.7544,-1.7532,-1.7518,-1.744,-1.7473,-1.7465,-1.7454,-1.737,-1.7355,-1.7349,-1.733,-1.7304,-1.7302,-1.73,-1.73,-1.7333,-1.7335,0,0,0,0,0,0,-1.7698,-1.7679,-1.76,-1.7594,-1.7618,-1.7544,-1.7531,-1.7517,-1.744,-1.7426,-1.7456,-1.745,-1.736,-1.7352,-1.7345,-1.7376,-1.7301,-1.7299,-1.7298,-1.7331,-1.7334,-1.7336,0,0,0,0,0,0,-1.7701,-1.7692,-1.7604,-1.7634,-1.7621,-1.7545,-1.7531,-1.7516,-1.7501,-1.7427,-1.7412,-1.7456,-1.7358,-1.7348,-1.7343,-1.7371,-1.7298,-1.7296,-1.7329,-1.7332,-1.7335,-1.7439,0,0,0,0,0,0,-1.7704,-1.7694,-1.7705,-1.7635,-1.762,-1.7605,-1.7532,-1.7516,-1.7498,-1.7488,-1.7422,-1.7409,-1.7355,-1.7347,-1.7341,-1.7367,-1.7295,-1.7326,-1.733,-1.7334,-1.7433,-1.7445,-1.7456,0,0,0,0,0,-1.7708,-1.7738,-1.7706,-1.7697,-1.7632,-1.7607,-1.7598,-1.7535,-1.75,-1.7511,-1.7463,-1.7411,-1.7369,-1.7347,-1.7339,-1.7365,-1.7324,-1.7329,-1.7334,-1.7427,-1.7443,-1.7456,0,0,0,0,0,0,-1.7813,-1.7728,-1.7691,-1.7699,-1.7661,-1.7589,-1.76,-1.7554,-1.7524,-1.7517,-1.744,-1.7426,-1.743,-1.7396,-1.7374,-1.739,-1.7339,-1.7343,-1.7413,-1.7427,-1.7438,-1.7447,-1.7293,0,0,0,0,0,-1.7837,-1.7824,-1.775,-1.7764,-1.7747,-1.7677,-1.7664,-1.7619,-1.7576,-1.7559,-1.7511,-1.7471,-1.7448,-1.7435,-1.741,-1.7427,-1.7411,-1.744,-1.7452,-1.7462,-1.7467,-1.7473,-1.7486,-1.7353,-1.7353,-1.7353,0,0,-1.7887,-1.7839,-1.7835,-1.7784,-1.7749,-1.7737,-1.7664,-1.7654,-1.7645,-1.7557,-1.755,-1.7513,-1.7464,-1.747,-1.747,-1.7442,-1.75,-1.7468,-1.7477,-1.7476,-1.748,-1.7492,-1.7504,-1.7356,-1.7355,-1.7355,0,0,-1.7972,-1.7933,-1.7941,-1.7908,-1.7856,-1.7809,-1.7811,-1.7745,-1.7718,-1.7709,-1.7643,-1.763,-1.7593,-1.7561,-1.7539,-1.7611,-1.7563,-1.7605,-1.7667,-1.7674,-1.7685,-1.7694,-1.772,-1.7731,-1.7609,-1.7609,-1.761,0,-1.804,-1.802,-1.7951,-1.7946,-1.7926,-1.7846,-1.7853,-1.7824,-1.7767,-1.7754,-1.7724,-1.7675,-1.7636,-1.7634,-1.7651,-1.7636,-1.7636,-1.7613,-1.7689,-1.7697,-1.7704,-1.7729,-1.7739,-1.7615,-1.7614,-1.7614,-1.7613,0,-1.8107,-1.8093,-1.8106,-1.8053,-1.8034,-1.8035,-1.7967,-1.7955,-1.7912,-1.7868,-1.786,-1.781,-1.7774,-1.777,-1.7727,-1.7761,-1.7746,-1.7703,-1.765,-1.7724,-1.7746,-1.7754,-1.7623,-1.7621,-1.7619,-1.7618,0,0,-1.8256,-1.8165,-1.8171,-1.8146,-1.8082,-1.8071,-1.8068,-1.8032,-1.8025,-1.7987,-1.7983,-1.7953,-1.7913,-1.7889,-1.7842,-1.7848,-1.7909,-1.7804,-1.7802,-1.7827,-1.7944,-1.7978,-1.799,-1.7876,-1.7877,-1.7878,-1.7949,0,-1.8331,-1.8322,-1.826,-1.8269,-1.8256,-1.8179,-1.8177,-1.8137,-1.8096,-1.8079,-1.8033,-1.8013,-1.7962,-1.7947,-1.7949,-1.7901,-1.7932,-1.7895,-1.7872,-1.7872,-1.7889,-1.8001,-1.8037,-1.8107,-1.7957,-1.7958,-1.7959,0,-1.8417,-1.8386,-1.8394,-1.833,-1.8322,-1.8321,-1.8284,-1.8268,-1.8222,-1.8191,-1.8165,-1.8111,-1.8103,-1.8052,-1.8041,-1.8017,-1.8003,-1.7978,-1.7979,-1.7976,-1.7922,-1.8003,-1.8127,-1.8138,-1.7972,-1.7971,-1.797,0,-1.8528,-1.8487,-1.8486,-1.8467,-1.8392,-1.8394,-1.8362,-1.8314,-1.8296,-1.8263,-1.8251,-1.8218,-1.82,-1.8175,-1.8114,-1.8082,-1.811,-1.8053,-1.8085,-1.8087,-1.8096,-1.8096,-1.8221,-1.8085,-1.8084,-1.8084,-1.8084,0,-1.8619,-1.8627,-1.8535,-1.8535,-1.8541,-1.847,-1.8478,-1.8439,-1.8396,-1.8387,-1.8318,-1.8311,-1.8229,-1.8213,-1.8165,-1.8163,-1.8155,-1.813,-1.8118,-1.8138,-1.8141,-1.8129,-1.8124,-1.8087,-1.8086,-1.8086,-1.8085,0,-1.8744,-1.8682,-1.8677,-1.8607,-1.8589,-1.8597,-1.8537,-1.8533,-1.8487,-1.8477,-1.847,-1.8398,-1.8375,-1.8311,-1.8271,-1.8238,-1.8251,-1.8226,-1.8268,-1.826,-1.8296,-1.8294,-1.8418,-1.8432,-1.8286,-1.8287,-1.8288,0,-1.8807,-1.8812,-1.8742,-1.8731,-1.8703,-1.8686,-1.8668,-1.8597,-1.8581,-1.8528,-1.8532,-1.8503,-1.8476,-1.8443,-1.8387,-1.8356,-1.8331,-1.8377,-1.8326,-1.8346,-1.8333,-1.8335,-1.8335,-1.8389,-1.8391,-1.8392,-1.8393,0,-1.8927,-1.8896,-1.8873,-1.8839,-1.882,-1.879,-1.8756,-1.8751,-1.8671,-1.8657,-1.8632,-1.8612,-1.8571,-1.8544,-1.8504,-1.8471,-1.842,-1.8409,-1.8415,-1.8437,-1.8461,-1.845,-1.83,-1.8407,-1.8406,-1.8405,-1.8404,-1.8404,-1.9023,-1.9024,-1.8975,-1.8952,-1.8919,-1.8889,-1.8883,-1.8836,-1.8814,-1.8776,-1.8735,-1.8715,-1.8668,-1.8609,-1.858,-1.8563,-1.8536,-1.8544,-1.8546,-1.855,-1.856,-1.8462,-1.8555,-1.8555,-1.8554,-1.8554,-1.8554,0,-1.9141,-1.9105,-1.9084,-1.9039,-1.9021,-1.8973,-1.8933,-1.8921,-1.8905,-1.8865,-1.884,-1.8812,-1.8785,-1.8727,-1.8694,-1.8692,-1.8667,-1.8686,-1.8686,-1.868,-1.8586,-1.8584,-1.8706,-1.8706,-1.8706,-1.8706,-1.8706,-1.8706,-1.92,-1.9199,-1.9162,-1.9144,-1.9107,-1.9088,-1.9069,-1.9041,-1.9009,-1.8981,-1.8958,-1.892,-1.8873,-1.8836,-1.8809,-1.8792,-1.8784,-1.8811,-1.8787,-1.8701,-1.8686,-1.8673,-1.8671,-1.8809,-1.881,-1.8883,-1.8883,-1.8884]},{"header":{"parameterUnit":"m.s-1","parameterCategory":1,"la1":30.2991,"la2":30.254,"lo1":-89.0895,"lo2":-89.0444,"dy":0.0017,"dx":0.0017,"nx":28,"ny":28,"refTime":"2023-07-24T21:00:00:Z","depth":0,"parameterNumber":3,"parameterNumberName":"V-component_of_WINDS"},"data":[0,0,0,0,0,0,0,0,0,0,0,0,0,0,0,0,0,0,0,0,0,0,0,0,0,0,0,0,0,0,0,0,0,0,0,0,0,0,0,0,0,0,0,0,0,0,0,0,0,0,0,0,0,0,0,0,0,0,-3.1149,-3.115,0,-3.1173,-3.1174,-3.1174,-3.1142,-3.1141,-3.114,-3.1139,-3.116,-3.1162,-3.1164,0,0,0,0,0,0,0,0,0,0,0,0,0,-3.1074,-3.1075,-3.1149,-3.115,-3.115,-3.1173,-3.1174,-3.1174,-3.1142,-3.1141,-3.114,-3.1138,-3.116,-3.1162,-3.1164,0,0,0,0,0,0,0,0,0,0,0,0,0,-3.1103,-3.1076,-3.1149,-3.1137,-3.1136,-3.1173,-3.1174,-3.1174,-3.1143,-3.1141,-3.1139,-3.1138,-3.1159,-3.1162,-3.1164,-3.1213,0,0,-3.1172,-3.1173,0,0,0,0,0,0,0,0,-3.1101,-3.1106,-3.1139,-3.1138,-3.1137,-3.1153,-3.1155,-3.1187,-3.1143,-3.114,-3.1139,-3.1137,-3.1159,-3.1162,-3.117,-3.1214,-3.1215,-3.1172,-3.1173,-3.1174,-3.1175,0,0,0,0,0,0,0,-3.1099,-3.1105,-3.1159,-3.1139,-3.1138,-3.113,-3.1132,-3.1161,-3.1159,-3.114,-3.1138,-3.1142,-3.1158,-3.1167,-3.117,-3.1215,-3.1172,-3.1174,-3.1175,-3.1176,-3.1302,-3.1304,0,0,0,0,0,0,-3.1099,-3.1103,-3.1158,-3.1159,-3.1115,-3.1132,-3.1135,-3.115,-3.1158,-3.1158,-3.1143,-3.114,-3.1164,-3.1167,-3.1171,-3.1229,-3.1174,-3.1177,-3.1178,-3.13,-3.1302,-3.1304,0,0,0,0,0,0,-3.1098,-3.1104,-3.1157,-3.1131,-3.1137,-3.1136,-3.1152,-3.1151,-3.116,-3.116,-3.116,-3.1153,-3.1163,-3.1167,-3.1203,-3.123,-3.1178,-3.118,-3.1298,-3.1301,-3.1303,-3.1347,0,0,0,0,0,0,-3.1096,-3.1104,-3.1123,-3.1131,-3.1138,-3.119,-3.1154,-3.1153,-3.1165,-3.1161,-3.1169,-3.1169,-3.1162,-3.12,-3.1206,-3.1232,-3.1182,-3.1295,-3.1299,-3.1302,-3.1343,-3.1351,-3.1357,0,0,0,0,0,-3.1093,-3.1134,-3.1125,-3.1131,-3.1163,-3.1192,-3.1196,-3.1187,-3.1167,-3.1186,-3.1186,-3.1169,-3.1226,-3.1204,-3.121,-3.1238,-3.1294,-3.1298,-3.1302,-3.134,-3.1349,-3.1357,0,0,0,0,0,0,-3.1128,-3.1135,-3.1124,-3.1169,-3.118,-3.1186,-3.121,-3.1197,-3.1214,-3.1209,-3.1197,-3.1199,-3.1238,-3.1241,-3.1217,-3.1286,-3.1256,-3.1262,-3.1283,-3.1292,-3.1299,-3.1297,-3.1184,0,0,0,0,0,-3.1141,-3.1165,-3.1169,-3.1208,-3.1214,-3.1212,-3.1224,-3.1217,-3.1227,-3.1231,-3.1234,-3.1244,-3.1265,-3.1278,-3.1296,-3.1343,-3.1344,-3.1365,-3.1372,-3.1378,-3.1383,-3.1409,-3.1418,-3.1318,-3.1318,-3.1318,0,0,-3.1167,-3.1174,-3.119,-3.1215,-3.1223,-3.1248,-3.1216,-3.1243,-3.1261,-3.1235,-3.127,-3.1272,-3.1283,-3.1325,-3.1343,-3.1328,-3.1411,-3.1383,-3.1388,-3.139,-3.1414,-3.1424,-3.1432,-3.1321,-3.132,-3.132,0,0,-3.1229,-3.1237,-3.1271,-3.1279,-3.1292,-3.129,-3.1298,-3.1306,-3.1307,-3.1342,-3.1324,-3.1344,-3.1379,-3.1388,-3.1396,-3.1462,-3.1447,-3.1468,-3.1506,-3.1531,-3.1539,-3.1546,-3.157,-3.1578,-3.1473,-3.1473,-3.1473,0,-3.1261,-3.1298,-3.1289,-3.1318,-3.133,-3.1309,-3.1343,-3.1351,-3.1369,-3.1377,-3.136,-3.1404,-3.141,-3.1453,-3.147,-3.1477,-3.1486,-3.1467,-3.1538,-3.1545,-3.1552,-3.1574,-3.1583,-3.1476,-3.1475,-3.1475,-3.1475,0,-3.1337,-3.1363,-3.1388,-3.1408,-3.1422,-3.1453,-3.1448,-3.1464,-3.1455,-3.1455,-3.149,-3.1496,-3.1516,-3.1525,-3.1517,-3.1568,-3.1559,-3.154,-3.1511,-3.1564,-3.1585,-3.1594,-3.1479,-3.1479,-3.1478,-3.1477,0,0,-3.1421,-3.1435,-3.1445,-3.1454,-3.1466,-3.1486,-3.1516,-3.1536,-3.155,-3.1563,-3.1588,-3.1618,-3.1601,-3.1611,-3.1603,-3.1625,-3.1677,-3.1604,-3.1604,-3.1618,-3.1735,-3.175,-3.176,-3.1667,-3.1669,-3.167,-3.1735,0,-3.1483,-3.1537,-3.153,-3.1581,-3.1605,-3.1586,-3.1612,-3.1622,-3.1622,-3.1642,-3.1641,-3.1664,-3.164,-3.1646,-3.1666,-3.1667,-3.1701,-3.1662,-3.169,-3.1691,-3.1689,-3.1771,-3.1786,-3.1847,-3.1743,-3.1744,-3.1745,0,-3.1564,-3.1581,-3.1635,-3.1645,-3.1654,-3.1678,-3.1697,-3.1716,-3.1727,-3.1725,-3.1737,-3.1725,-3.1755,-3.1724,-3.1764,-3.1738,-3.1749,-3.1751,-3.1753,-3.1756,-3.1722,-3.1777,-3.1866,-3.1876,-3.1758,-3.1757,-3.1756,0,-3.1621,-3.1658,-3.1695,-3.1703,-3.1715,-3.1732,-3.1737,-3.1747,-3.176,-3.1775,-3.1783,-3.1802,-3.1812,-3.1826,-3.1819,-3.1797,-3.1861,-3.183,-3.1861,-3.1861,-3.1876,-3.1875,-3.1969,-3.1881,-3.1881,-3.1881,-3.1881,0,-3.1692,-3.1726,-3.1721,-3.1744,-3.1781,-3.1773,-3.1809,-3.1812,-3.1821,-3.1844,-3.1827,-3.1848,-3.1838,-3.1858,-3.1853,-3.1887,-3.1892,-3.1891,-3.189,-3.1893,-3.1894,-3.1901,-3.1897,-3.1884,-3.1883,-3.1883,-3.1882,0,-3.1763,-3.1761,-3.18,-3.1809,-3.1812,-3.1839,-3.1845,-3.1867,-3.1866,-3.1895,-3.1901,-3.1899,-3.1922,-3.1917,-3.1942,-3.1938,-3.1982,-3.1975,-3.1979,-3.1978,-3.2009,-3.2007,-3.2112,-3.2125,-3.2028,-3.2029,-3.203,0,-3.1809,-3.1835,-3.1847,-3.1861,-3.1869,-3.1892,-3.1906,-3.1897,-3.1912,-3.1927,-3.1946,-3.1968,-3.1986,-3.2024,-3.2024,-3.2043,-3.2036,-3.2072,-3.2039,-3.2042,-3.2038,-3.2037,-3.204,-3.2079,-3.208,-3.2081,-3.2081,0,-3.1891,-3.1889,-3.191,-3.1931,-3.1948,-3.1963,-3.1977,-3.1989,-3.1982,-3.1999,-3.2024,-3.2037,-3.2064,-3.2086,-3.2104,-3.2108,-3.2094,-3.2092,-3.21,-3.2105,-3.2107,-3.2107,-3.1998,-3.2089,-3.2089,-3.2088,-3.2088,-3.2087,-3.1952,-3.1974,-3.1986,-3.201,-3.202,-3.2033,-3.2054,-3.2056,-3.2077,-3.2098,-3.2092,-3.212,-3.213,-3.2152,-3.2159,-3.218,-3.2167,-3.2179,-3.2182,-3.2185,-3.219,-3.2103,-3.2183,-3.2183,-3.2183,-3.2182,-3.2182,0,-3.2034,-3.2041,-3.2063,-3.2083,-3.2102,-3.2088,-3.2102,-3.2119,-3.2144,-3.2155,-3.2173,-3.2201,-3.2222,-3.2225,-3.2245,-3.2261,-3.2255,-3.2267,-3.2266,-3.2267,-3.22,-3.2191,-3.2272,-3.2272,-3.2272,-3.2272,-3.2271,-3.2271,-3.2079,-3.2117,-3.2116,-3.2158,-3.2164,-3.2193,-3.2202,-3.2214,-3.2223,-3.2256,-3.2274,-3.2276,-3.2284,-3.2304,-3.2323,-3.2323,-3.2332,-3.2346,-3.2344,-3.2281,-3.2272,-3.2264,-3.2255,-3.2348,-3.2348,-3.2409,-3.241,-3.241]}]]